Home > Weather > Dachau > Past weeks

Flag for Germany Weather for the Past 2 Weeks in Dachau, Bavaria, Germany

Now
45 °F

Passing clouds.


Feels Like: 43 °F
Forecast: 37 / 60 °F
Wind: 3 mph from West

Location: Munich / Franz Josef Strauss Airport

Current Time: May 4, 2016 at 7:10:22 AM

Latest Report: May 4, 2016 at 6:20 AM


Visibility: N/A

Pressure: 30.30 "Hg (28.50 "Hg at 502m altitude)

Humidity: 81%

Dew Point: 39 °F

Location of DachauLocation

Historic Weather in Dachau — Graph

°F

Dachau Temperature Yesterday

Maximum temperature yesterday: 63 °F (at 12:50 PM)
Minimum temperature yesterday: 43 °F (at 1:50 AM)
Average temperature yesterday: 52 °F

High & Low Weather Summary for the Past Weeks

 TemperatureHumidityPressure
High66 °F (Apr 22, 2:50 PM)100% (Apr 21, 3:20 AM)30.39 "Hg (Apr 21, 3:20 AM)
Low27 °F (Apr 29, 5:50 AM)22% (Apr 30, 4:50 PM)29.59 "Hg (Apr 26, 9:20 AM)
Average46 °F70%30.00 "Hg
* Reported Apr 19 5:20 AM — May 4 5:50 AM, Dachau, Weather by CustomWeather, © 2016

Note: Actual official high and low records may vary slightly from our data, if they occured in-between our weather recording intervals... More about our weather records

Advertising

Dachau Weather History for the Previous 24 Hours

Scroll right to see more
 ConditionsComfort  
Time TempWeatherWind HumidityBarometerVisibility
5:50 AM
Wed, May 4
45 °FPassing clouds.6 mph81%30.30 "HgN/A
5:20 AM45 °FPassing clouds.7 mph81%30.27 "HgN/A
4:50 AM45 °FPassing clouds.7 mph81%30.27 "HgN/A
4:20 AM45 °FPassing clouds.9 mph81%30.27 "HgN/A
3:50 AM45 °FPassing clouds.7 mph81%30.27 "HgN/A
3:20 AM45 °FPassing clouds.7 mph81%30.24 "HgN/A
2:50 AM45 °FPassing clouds.12 mph81%30.24 "HgN/A
2:20 AM46 °FPartly cloudy.12 mph71%30.24 "HgN/A
1:50 AM46 °FPassing clouds.9 mph76%30.24 "HgN/A
12:50 AM46 °FPassing clouds.10 mph76%30.24 "HgN/A
12:20 AM48 °FPassing clouds.12 mph71%30.21 "HgN/A
11:50 PM
Tue, May 3
48 °FPartly cloudy.9 mph71%30.21 "HgN/A
11:20 PM48 °FPartly cloudy.16 mph76%30.21 "HgN/A
10:20 PM48 °FPassing clouds.10 mph76%30.18 "HgN/A
9:50 PM50 °FPassing clouds.10 mph76%30.18 "HgN/A
9:20 PM50 °FPartly sunny.9 mph71%30.15 "HgN/A
8:50 PM50 °FPartly sunny.12 mph71%30.15 "HgN/A
8:20 PM50 °FPartly sunny.12 mph71%30.12 "HgN/A
7:50 PM52 °FPartly sunny.15 mph72%30.12 "HgN/A
7:20 PM50 °FPartly sunny.10 mph94%30.09 "HgN/A
6:50 PM50 °FPartly sunny.12 mph94%30.09 "HgN/A
6:20 PM48 °FThunderstorms. Partly sunny.17 mph87%30.09 "HgN/A
5:50 PM52 °FStrong thunderstorms. Partly sunny.17 mph77%30.07 "Hg1 mi
5:20 PM55 °FThunderstorms. Partly sunny.18 mph63%30.04 "HgN/A
4:50 PM57 °FThundershowers. Partly sunny.3 mph59%30.04 "HgN/A
4:20 PM55 °FRain showers. Broken clouds.7 mph59%30.04 "HgN/A
3:50 PM57 °FSprinkles. Broken clouds.12 mph59%30.04 "HgN/A
3:20 PM59 °FThundershowers. Scattered clouds.9 mph48%30.04 "HgN/A
2:50 PM61 °FScattered clouds.12 mph52%30.04 "HgN/A
2:20 PM63 °FThundershowers. Scattered clouds.13 mph37%30.01 "HgN/A
1:50 PM63 °FScattered clouds.10 mph42%30.01 "HgN/A
1:20 PM61 °FScattered clouds.10 mph42%30.04 "HgN/A
12:50 PM63 °FScattered clouds.10 mph49%30.04 "HgN/A
12:20 PM61 °FScattered clouds.13 mph52%30.04 "HgN/A
11:50 AM61 °FPartly sunny.12 mph55%30.07 "HgN/A
11:20 AM59 °FPartly sunny.12 mph55%30.07 "HgN/A
10:50 AM59 °FPartly sunny.10 mph59%30.07 "HgN/A
10:20 AM57 °FPartly sunny.12 mph63%30.07 "HgN/A
9:50 AM57 °FSunny.10 mph63%30.07 "Hg10 mi
9:20 AM54 °FPassing clouds.9 mph77%30.07 "HgN/A
8:50 AM52 °FClear.12 mph77%30.07 "Hg6 mi
8:20 AM50 °FClear.10 mph88%30.07 "Hg4 mi
7:20 AM46 °FClear.7 mph93%30.07 "Hg4 mi
Weather by CustomWeather, © 2016

See weather overviewHow to use our weather pages